FW2288 Weather Reports


Display with metric or nautical units.
time (UTC)temp
F
wind
direction
speed
MPH
gust
MPH
rain 1hr
in
rain 24hr
in
rain mn
in
humidity
%
barometer
mb
20260906091046 67 360 2.0 6.0 0.00 0.22 0.00 92 1012.1
20260906090548 67 348 3.0 7.0 0.00 0.22 0.00 92 1012.0
20260906090103 68 340 4.0 7.0 0.00 0.22 0.00 93 1012.2
20260906085548 68 338 5.0 7.0 0.00 0.22 0.00 93 1012.1
20260906085048 68 342 5.0 7.0 0.00 0.22 0.00 92 1012.1
20260906084606 68 341 3.0 5.0 0.00 0.22 0.00 92 1012.0
20260906084050 68 348 2.0 4.0 0.00 0.22 0.00 92 1012.1
20260906083548 68 348 1.0 3.0 0.00 0.22 0.00 92 1012.0
20260906083106 68 357 1.0 3.0 0.00 0.22 0.00 91 1012.1
20260906082548 68 357 1.0 3.0 0.00 0.22 0.00 91 1012.1
20260906082048 68 357 1.0 4.0 0.00 0.22 0.00 91 1012.1
20260906081603 68 339 2.0 5.0 0.00 0.22 0.00 91 1012.2
20260906081050 68 338 2.0 5.0 0.00 0.22 0.00 91 1012.4
20260906080549 68 342 2.0 4.0 0.00 0.22 0.00 91 1012.3
20260906080106 68 336 2.0 5.0 0.00 0.22 0.00 91 1012.3
20260906075546 68 325 2.0 5.0 0.00 0.22 0.00 91 1012.3
20260906075048 68 331 2.0 5.0 0.00 0.22 0.00 91 1012.3
20260906074601 68 336 3.0 5.0 0.00 0.22 0.00 91 1012.2
20260906074048 67 347 2.0 4.0 0.00 0.22 0.00 91 1012.4
20260906073549 67 335 1.0 3.0 0.00 0.22 0.00 90 1012.2
20260906073105 68 0 0.0 2.0 0.00 0.22 0.00 90 1012.3
20260906072549 68 0 0.0 2.0 0.00 0.22 0.00 90 1012.3
20260906072049 68 265 0.0 3.0 0.00 0.22 0.00 90 1012.3
20260906071606 68 257 0.0 3.0 0.00 0.22 0.00 90 1012.3
20260906071051 68 278 1.0 3.0 0.00 0.22 0.00 90 1012.4
20260906070550 68 259 1.0 3.0 0.00 0.22 0.00 90 1012.2
20260906070109 68 224 2.0 3.0 0.00 0.22 0.00 90 1012.2
20260906065552 68 206 1.0 3.0 0.00 0.22 0.00 90 1012.2
20260906065049 68 0 1.0 3.0 0.00 0.22 0.00 90 1012.2
20260906064603 68 221 0.0 4.0 0.00 0.22 0.00 91 1012.3
20260906064050 67 221 1.0 5.0 0.00 0.22 0.00 91 1012.2
20260906063549 67 213 2.0 5.0 0.00 0.22 0.00 91 1012.3
20260906063105 67 215 3.0 5.0 0.00 0.22 0.00 92 1012.4
20260906062548 67 241 2.0 5.0 0.00 0.22 0.00 92 1012.6
20260906062048 67 220 2.0 5.0 0.00 0.22 0.00 92 1012.8
20260906061623 67 210 1.0 5.0 0.00 0.22 0.00 92 1012.8
20260906061049 67 220 2.0 6.0 0.00 0.22 0.00 92 1012.8
20260906060548 67 225 3.0 6.0 0.00 0.22 0.00 92 1012.8
20260906060128 67 217 3.0 5.0 0.00 0.22 0.00 93 1012.7
20260906055547 67 229 3.0 5.0 0.00 0.22 0.00 93 1013.0
20260906055048 67 231 3.0 5.0 0.00 0.22 0.00 93 1012.8
20260906054605 67 222 2.0 4.0 0.00 0.22 0.00 92 1013.0
20260906054046 67 194 2.0 5.0 0.00 0.22 0.00 92 1013.0
20260906053549 67 225 2.0 5.0 0.00 0.22 0.00 92 1013.0
20260906053102 68 216 3.0 5.0 0.00 0.22 0.00 91 1013.1
20260906052551 68 217 3.0 5.0 0.00 0.22 0.00 91 1013.0
20260906052049 68 221 2.0 4.0 0.00 0.22 0.00 89 1013.0
20260906051607 69 215 2.0 4.0 0.00 0.22 0.00 89 1013.1
20260906051049 69 226 2.0 4.0 0.00 0.22 0.00 89 1013.0
20260906050551 69 195 0.0 3.0 0.00 0.22 0.00 89 1013.1
20260906050107 69 195 1.0 3.0 0.00 0.22 0.00 89 1013.2
20260906045548 69 184 1.0 3.0 0.00 0.22 0.00 89 1013.2
20260906045048 69 182 1.0 3.0 0.00 0.22 0.00 89 1013.1
20260906044601 69 0 0.0 1.0 0.00 0.22 0.00 89 1013.1
20260906044047 69 0 0.0 3.0 0.00 0.22 0.00 89 1013.2
20260906043550 69 0 1.0 3.0 0.00 0.22 0.00 89 1013.2
20260906043102 69 205 1.0 3.0 0.00 0.22 0.00 89 1013.1
20260906042548 69 178 0.0 3.0 0.00 0.22 0.00 89 1013.2
20260906042048 69 168 1.0 3.0 0.00 0.22 0.00 89 1013.1
20260906041605 69 197 1.0 3.0 0.00 0.22 0.00 89 1013.0
20260906041049 69 208 2.0 4.0 0.00 0.22 0.00 88 1013.1
20260906040549 69 253 1.0 4.0 0.00 0.22 0.00 88 1013.1
20260906040109 69 330 2.0 4.0 0.00 0.22 0.00 88 1013.2
20260906035547 69 300 1.0 3.0 0.00 0.22 0.22 88 1013.2
20260906035048 69 0 0.0 5.0 0.00 0.22 0.22 88 1013.1
20260906034606 69 345 1.0 5.0 0.00 0.22 0.22 88 1013.2
20260906034049 69 338 2.0 4.0 0.00 0.22 0.22 88 1013.2
20260906033548 69 331 2.0 6.0 0.00 0.22 0.22 89 1013.2
20260906033104 69 328 3.0 6.0 0.00 0.22 0.22 89 1013.3
20260906032548 69 326 3.0 4.0 0.00 0.22 0.22 89 1013.2
20260906032054 69 337 3.0 4.0 0.00 0.22 0.22 89 1013.2
20260906031604 69 340 2.0 4.0 0.00 0.22 0.22 89 1013.3
20260906031051 69 347 2.0 5.0 0.00 0.22 0.22 90 1013.5
20260906030548 69 347 2.0 5.0 0.00 0.22 0.22 89 1013.4
20260906025548 69 340 4.0 5.0 0.00 0.22 0.22 90 1013.7
20260906025048 69 342 3.0 6.0 0.00 0.22 0.22 89 1013.7
20260906024604 69 336 3.0 6.0 0.00 0.22 0.22 90 1013.7
20260906024051 69 328 3.0 5.0 0.00 0.22 0.22 90 1013.7
20260906023549 69 337 3.0 6.0 0.00 0.22 0.22 90 1013.6
20260906023106 70 335 3.0 6.0 0.00 0.22 0.22 90 1013.5
20260906022550 70 326 3.0 6.0 0.00 0.22 0.22 89 1013.5
20260906022048 70 358 3.0 6.0 0.00 0.22 0.22 89 1013.6
20260906021557 70 321 3.0 5.0 0.00 0.22 0.22 89 1013.7
20260906021048 70 326 3.0 5.0 0.00 0.22 0.22 89 1013.6
20260906020548 70 332 3.0 5.0 0.00 0.22 0.22 89 1013.5
20260906020109 70 337 2.0 5.0 0.00 0.22 0.22 89 1013.4
20260906015547 70 325 3.0 5.0 0.00 0.22 0.22 89 1013.5
20260906015048 70 344 2.0 5.0 0.00 0.22 0.22 89 1013.5
20260906014607 70 343 3.0 5.0 0.00 0.22 0.22 88 1013.5
20260906014048 70 344 3.0 5.0 0.00 0.22 0.22 88 1013.6
20260906013548 71 338 3.0 5.0 0.00 0.22 0.22 88 1013.6
20260906013106 70 329 3.0 6.0 0.00 0.22 0.22 88 1013.5
20260906012547 70 342 3.0 6.0 0.00 0.22 0.22 88 1013.3
20260906012045 70 327 3.0 6.0 0.00 0.22 0.22 89 1013.3
20260906011606 70 307 1.0 3.0 0.00 0.22 0.22 89 1013.1
20260906011048 70 247 1.0 3.0 0.00 0.22 0.22 90 1012.9
20260906010548 70 215 1.0 4.0 0.00 0.22 0.22 90 1013.0
20260906010108 70 228 1.0 5.0 0.00 0.22 0.22 90 1013.0
20260906005545 70 217 2.0 6.0 0.00 0.22 0.22 90 1013.0
20260906005052 70 267 3.0 6.0 0.00 0.22 0.22 89 1013.0
20260906004604 71 326 2.0 5.0 0.00 0.22 0.22 87 1012.9
20260906004051 71 348 2.0 5.0 0.00 0.22 0.22 87 1012.7
20260906003549 71 344 3.0 5.0 0.00 0.22 0.22 87 1012.6
20260906003104 71 353 1.0 3.0 0.00 0.22 0.22 87 1012.4
20260906002547 71 4 0.0 4.0 0.00 0.22 0.22 87 1012.5
20260906002048 72 0 0.0 5.0 0.00 0.22 0.22 86 1012.6
20260906001559 72 4 3.0 7.0 0.00 0.22 0.22 86 1012.8
20260906001045 72 351 4.0 9.0 0.00 0.22 0.22 85 1012.6
20260906000548 73 346 5.0 11.0 0.00 0.22 0.22 84 1012.5
20260906000111 73 347 7.0 11.0 0.00 0.22 0.22 83 1012.3
20260905235548 73 319 6.0 11.0 0.00 0.22 0.22 82 1012.4
20260905235052 74 3 4.0 12.0 0.00 0.22 0.22 81 1012.6
20260905234602 74 1 7.0 12.0 0.00 0.22 0.22 80 1012.7
20260905234048 74 336 5.0 11.0 0.00 0.22 0.22 79 1012.5
20260905233548 75 336 6.0 9.0 0.00 0.22 0.22 78 1012.4
20260905233117 75 337 4.0 8.0 0.00 0.22 0.22 77 1012.4
20260905232547 76 340 4.0 8.0 0.00 0.22 0.22 77 1012.4
20260905232046 76 335 4.0 8.0 0.00 0.22 0.22 76 1012.5
20260905231601 76 323 3.0 7.0 0.00 0.22 0.22 76 1012.6
20260905231046 77 333 2.0 7.0 0.00 0.22 0.22 75 1012.8
20260905230544 77 312 3.0 8.0 0.00 0.22 0.22 74 1012.7
20260905230108 77 332 4.0 8.0 0.00 0.22 0.22 73 1012.8
20260905225547 78 340 3.0 7.0 0.00 0.22 0.22 73 1012.7
20260905225048 78 333 3.0 8.0 0.00 0.22 0.22 72 1012.7
20260905224602 78 330 3.0 8.0 0.00 0.22 0.22 72 1012.8
20260905224048 78 340 3.0 8.0 0.00 0.22 0.22 72 1013.0
20260905223547 78 309 3.0 8.0 0.00 0.22 0.22 72 1012.9
20260905223105 78 327 3.0 7.0 0.00 0.22 0.22 72 1012.7
20260905222547 78 326 4.0 8.0 0.00 0.22 0.22 72 1012.8
20260905222047 78 327 4.0 8.0 0.00 0.22 0.22 71 1012.8
20260905221607 78 326 5.0 8.0 0.00 0.22 0.22 71 1012.8
20260905221046 78 354 3.0 7.0 0.00 0.22 0.22 71 1012.8
20260905220547 79 345 4.0 7.0 0.00 0.22 0.22 71 1012.8
20260905220108 79 331 4.0 7.0 0.00 0.22 0.22 70 1013.0
20260905215547 79 337 4.0 8.0 0.00 0.22 0.22 72 1013.0
20260905215047 79 328 4.0 8.0 0.00 0.22 0.22 71 1012.9
20260905214603 79 333 3.0 7.0 0.00 0.22 0.22 71 1013.0
20260905214048 79 349 3.0 7.0 0.00 0.22 0.22 71 1013.0
20260905213547 79 318 3.0 9.0 0.00 0.22 0.22 71 1013.0
20260905213103 79 322 4.0 9.0 0.00 0.22 0.22 71 1013.1
20260905212548 79 339 4.0 9.0 0.00 0.22 0.22 71 1013.0
20260905212047 79 321 4.0 7.0 0.00 0.22 0.22 71 1012.9
20260905211613 79 320 4.0 8.0 0.00 0.22 0.22 71 1012.9
20260905211048 79 319 4.0 8.0 0.00 0.22 0.22 71 1012.8
20260905210548 79 338 3.0 8.0 0.00 0.22 0.22 72 1012.8
20260905210111 79 349 4.0 8.0 0.00 0.22 0.22 72 1012.6
20260905205547 78 345 4.0 8.0 0.00 0.22 0.22 71 1012.5
20260905205048 78 357 4.0 8.0 0.00 0.22 0.22 73 1012.4
20260905204606 78 332 4.0 9.0 0.00 0.22 0.22 72 1012.4
20260905204048 77 338 4.0 9.0 0.00 0.22 0.22 75 1012.3
20260905203550 76 338 5.0 9.0 0.00 0.22 0.22 75 1012.3
20260905203102 76 344 5.0 9.0 0.00 0.22 0.22 75 1012.1
20260905202548 76 335 6.0 11.0 0.00 0.22 0.22 74 1012.3
20260905202048 77 348 6.0 11.0 0.00 0.22 0.22 74 1012.4
20260905201604 77 358 7.0 11.0 0.00 0.22 0.22 72 1012.2
20260905201047 77 339 6.0 10.0 0.00 0.22 0.22 74 1012.2
20260905200552 76 339 6.0 10.0 0.00 0.22 0.22 74 1012.3
20260905200108 76 328 7.0 10.0 0.00 0.22 0.22 75 1012.2
20260905195547 75 349 7.0 11.0 0.00 0.22 0.22 76 1012.0
20260905195047 75 351 7.0 11.0 0.00 0.22 0.22 75 1012.0
20260905194607 75 11 6.0 12.0 0.00 0.22 0.22 76 1012.2
20260905194047 75 331 7.0 15.0 0.00 0.22 0.22 77 1012.1
20260905193547 74 338 9.0 15.0 0.00 0.22 0.22 76 1012.1
20260905193105 74 344 9.0 15.0 0.00 0.22 0.22 76 1012.2
20260905192548 74 326 9.0 15.0 0.00 0.22 0.22 77 1012.2
20260905192048 74 335 9.0 15.0 0.00 0.22 0.22 76 1012.1
20260905191606 73 315 9.0 19.0 0.00 0.22 0.22 77 1012.2
20260905191047 73 340 9.0 19.0 0.00 0.22 0.22 77 1012.2
20260905190551 72 332 9.0 19.0 0.00 0.22 0.22 77 1012.1
20260905190104 72 334 9.0 15.0 0.00 0.22 0.22 78 1012.2
20260905185547 72 302 6.0 12.0 0.00 0.22 0.22 81 1012.4
20260905185045 71 333 6.0 12.0 0.00 0.22 0.22 82 1012.6
20260905184611 71 321 5.0 9.0 0.00 0.22 0.22 84 1012.6
20260905184048 71 280 4.0 9.0 0.00 0.22 0.22 85 1012.6
20260905183548 70 286 4.0 7.0 0.01 0.22 0.22 85 1012.3
20260905183118 70 281 3.0 8.0 0.01 0.22 0.22 88 1012.6
20260905182547 69 326 3.0 9.0 0.02 0.22 0.22 89 1012.7
20260905182048 68 317 3.0 11.0 0.03 0.22 0.22 89 1012.9
20260905181606 68 315 4.0 11.0 0.04 0.22 0.22 89 1013.0
20260905181048 68 327 6.0 14.0 0.05 0.22 0.22 89 1013.1
20260905180550 68 4 6.0 14.0 0.06 0.22 0.22 91 1012.9
20260905180108 68 332 10.0 14.0 0.07 0.22 0.22 92 1013.2
20260905175549 67 6 1.0 8.0 0.08 0.22 0.22 91 1012.9
20260905175048 67 0 1.0 4.0 0.09 0.22 0.22 89 1012.7
20260905174559 67 201 2.0 4.0 0.11 0.22 0.22 91 1013.2
20260905174049 67 0 1.0 5.0 0.17 0.22 0.22 91 1013.9
20260905173550 67 330 2.0 9.0 0.20 0.21 0.21 91 1014.1
20260905173059 67 161 4.0 10.0 0.21 0.21 0.21 90 1014.0
20260905172549 67 244 4.0 11.0 0.20 0.20 0.20 90 1014.5
20260905172050 67 326 6.0 20.0 0.19 0.19 0.19 90 1015.2
20260905171605 67 323 7.0 20.0 0.18 0.18 0.18 91 1015.4
20260905171049 67 321 6.0 12.0 0.17 0.17 0.17 93 1015.4
20260905170549 67 299 6.0 15.0 0.16 0.16 0.16 92 1015.6
20260905170104 67 343 7.0 15.0 0.15 0.15 0.15 92 1015.6
20260905165549 66 268 6.0 20.0 0.14 0.14 0.14 91 1015.8
20260905165050 66 262 7.0 20.0 0.13 0.13 0.13 89 1016.3
20260905164609 67 314 12.0 21.0 0.11 0.11 0.11 86 1016.0
20260905164049 68 344 12.0 22.0 0.05 0.05 0.05 80 1016.0
20260905163550 71 328 15.0 28.0 0.01 0.01 0.01 76 1016.3
20260905163110 73 340 15.0 35.0 0.00 0.00 0.00 72 1016.3
20260905162551 75 341 22.0 35.0 0.00 0.00 0.00 69 1016.2
20260905162049 78 1 18.0 29.0 0.00 0.00 0.00 71 1015.7
20260905161608 80 339 12.0 25.0 0.00 0.00 0.00 73 1015.5
20260905161049 81 328 7.0 12.0 0.00 0.00 0.00 74 1015.3
20260905160549 82 330 6.0 11.0 0.00 0.00 0.00 73 1015.3
20260905160105 82 323 4.0 9.0 0.00 0.00 0.00 72 1015.0
20260905155551 82 342 5.0 9.0 0.00 0.00 0.00 73 1014.8
20260905155048 82 353 5.0 11.0 0.00 0.00 0.00 72 1015.1
20260905154607 82 326 6.0 11.0 0.00 0.00 0.00 73 1015.0
20260905154049 82 312 4.0 10.0 0.00 0.00 0.00 72 1015.0
20260905153549 82 321 4.0 11.0 0.00 0.00 0.00 73 1015.3
20260905153116 82 323 5.0 12.0 0.00 0.00 0.00 71 1015.3
20260905152547 83 6 6.0 12.0 0.00 0.00 0.00 73 1015.3
20260905152049 83 323 6.0 11.0 0.00 0.00 0.00 72 1015.2
20260905151614 82 326 4.0 11.0 0.00 0.00 0.00 74 1015.3
20260905151048 81 307 4.0 11.0 0.00 0.00 0.00 75 1015.3
20260905150548 81 320 6.0 11.0 0.00 0.00 0.00 74 1015.3
20260905150107 81 313 3.0 8.0 0.00 0.00 0.00 76 1015.2
20260905145549 80 343 3.0 8.0 0.00 0.00 0.00 77 1015.1
20260905145049 80 334 3.0 8.0 0.00 0.00 0.00 77 1015.0
20260905144605 79 293 4.0 8.0 0.00 0.00 0.00 77 1014.9
20260905144053 79 306 3.0 8.0 0.00 0.00 0.00 78 1014.9
20260905143548 79 299 3.0 11.0 0.00 0.00 0.00 78 1014.9
20260905143106 80 283 4.0 11.0 0.00 0.00 0.00 76 1015.0
20260905142546 80 326 5.0 11.0 0.00 0.00 0.00 76 1015.0
20260905142048 80 323 4.0 8.0 0.00 0.00 0.00 77 1015.1
20260905141629 79 326 3.0 8.0 0.00 0.00 0.00 78 1015.3
20260905141052 79 326 3.0 7.0 0.00 0.00 0.00 78 1015.1
20260905140547 78 326 3.0 8.0 0.00 0.00 0.00 79 1015.0
20260905140109 78 303 3.0 8.0 0.00 0.00 0.00 79 1014.9
20260905135546 78 323 3.0 6.0 0.00 0.00 0.00 80 1014.8
20260905135045 77 302 2.0 6.0 0.00 0.00 0.00 82 1014.8
20260905134604 76 0 2.0 6.0 0.00 0.00 0.00 82 1014.9
20260905134046 75 343 1.0 5.0 0.00 0.00 0.00 84 1014.7
20260905133546 75 267 2.0 5.0 0.00 0.00 0.00 85 1014.7
20260905133106 74 262 1.0 4.0 0.00 0.00 0.00 85 1014.9
20260905132546 74 0 2.0 4.0 0.00 0.00 0.00 85 1015.0
20260905132050 74 0 0.0 5.0 0.00 0.00 0.00 85 1015.0
20260905131616 74 250 2.0 5.0 0.00 0.00 0.00 84 1015.0
20260905131046 73 252 2.0 6.0 0.00 0.00 0.00 85 1015.1
20260905130550 73 278 2.0 6.0 0.00 0.00 0.00 85 1015.2
20260905130106 72 0 1.0 6.0 0.00 0.00 0.00 86 1015.1
20260905125546 72 245 1.0 5.0 0.00 0.00 0.00 86 1015.0
20260905125046 71 236 1.0 5.0 0.00 0.00 0.00 87 1015.0
20260905124604 71 216 1.0 4.0 0.00 0.00 0.00 87 1015.0
20260905124047 70 206 2.0 4.0 0.00 0.00 0.00 87 1015.1
20260905123547 70 188 2.0 6.0 0.00 0.00 0.00 87 1015.0
20260905123106 70 219 2.0 6.0 0.00 0.00 0.00 87 1015.0
20260905122544 70 202 2.0 5.0 0.00 0.00 0.00 87 1014.9
20260905122043 71 212 1.0 6.0 0.00 0.00 0.00 86 1014.9
20260905121607 71 238 2.0 6.0 0.00 0.00 0.00 84 1014.9
20260905121049 72 231 2.0 6.0 0.00 0.00 0.00 83 1014.8
20260905120547 72 275 2.0 8.0 0.00 0.00 0.00 82 1014.8
20260905120108 73 322 3.0 8.0 0.00 0.00 0.00 82 1014.6
20260905115546 72 330 4.0 8.0 0.00 0.00 0.00 82 1014.5
20260905115046 72 329 2.0 6.0 0.00 0.00 0.00 82 1014.5
20260905114604 72 263 2.0 6.0 0.00 0.00 0.00 82 1014.5
20260905114047 72 268 2.0 5.0 0.00 0.00 0.00 83 1014.3
20260905113544 72 305 2.0 6.0 0.00 0.00 0.00 83 1014.3
20260905113108 71 307 4.0 6.0 0.00 0.00 0.00 84 1014.3
20260905112549 71 325 3.0 5.0 0.00 0.00 0.00 84 1014.4
20260905112049 71 327 2.0 6.0 0.00 0.00 0.00 84 1014.4
20260905111600 71 264 2.0 6.0 0.00 0.00 0.00 84 1014.4
20260905111050 71 286 3.0 6.0 0.00 0.00 0.00 84 1014.3
20260905110548 71 252 3.0 6.0 0.00 0.00 0.00 84 1014.3
20260905110106 71 285 3.0 8.0 0.00 0.00 0.00 84 1014.3
20260905105549 71 323 4.0 8.0 0.00 0.00 0.00 85 1014.4
20260905105049 70 261 3.0 7.0 0.00 0.00 0.00 86 1014.4
20260905104606 70 246 3.0 5.0 0.00 0.00 0.00 86 1014.3
20260905104047 70 259 2.0 6.0 0.00 0.00 0.00 86 1014.2
20260905103552 70 264 3.0 6.0 0.00 0.00 0.00 86 1014.2
20260905103111 70 259 2.0 5.0 0.00 0.00 0.00 87 1014.2
20260905102549 69 259 3.0 5.0 0.00 0.00 0.00 88 1014.3
20260905102048 69 273 2.0 4.0 0.00 0.00 0.00 88 1014.3
20260905101603 69 255 1.0 4.0 0.00 0.00 0.00 87 1014.3
20260905101049 70 258 1.0 4.0 0.00 0.00 0.00 85 1014.1
20260905100549 71 285 1.0 5.0 0.00 0.00 0.00 83 1014.1
20260905100121 71 303 2.0 5.0 0.00 0.00 0.00 83 1014.0
20260905095548 71 323 3.0 6.0 0.00 0.00 0.00 84 1013.9
20260905095049 71 312 3.0 7.0 0.00 0.00 0.00 85 1013.9
20260905094603 71 260 3.0 7.0 0.00 0.00 0.00 85 1013.9
20260905094048 70 325 2.0 5.0 0.00 0.00 0.00 87 1014.0
20260905093552 69 310 3.0 5.0 0.00 0.00 0.00 88 1014.0
20260905093106 69 271 2.0 5.0 0.00 0.00 0.00 89 1014.1
20260905092548 68 259 3.0 5.0 0.00 0.00 0.00 90 1014.0
20260905092048 68 251 3.0 5.0 0.00 0.00 0.00 91 1014.0
20260905091605 68 275 2.0 5.0 0.00 0.00 0.00 92 1014.0